This demonstration page uses our WeatherBlox Daily Observations layout. Learn more.

Left ArrowRight Arrow

Hourly Observations for November 29, 2016

Temp ( °F °C ) Dew Point ( °F °C ) Humidity (%) Winds ( mph kmh ) Pressure ( in mb ) Visibility ( mi km ) Precip ( " mm )
12:15 am 00:15 Clear 36 2 23 -5.2 59 59 W 10 17 29.44 997 10 16 0.00 0.00
12:35 am 00:35 Clear 34 1.1 23 -5.2 63 63 W 12 19 29.44 997 10 16 0.00 0.00
12:55 am 00:55 Clear 34 1.2 23 -5.1 63 63 W 12 19 29.44 997 10 16 0.00 0.00
1:15 am 01:15 Clear 33 0.6 23 -5.2 65 65 W 10 17 29.44 997 10 16 0.00 0.00
1:35 am 01:35 Clear 33 0.3 23 -5.1 67 67 W 10 17 29.44 997 10 16 0.00 0.00
1:55 am 01:55 Clear 33 0.8 23 -4.8 67 67 W 15 24 29.44 997 10 16 0.00 0.00
2:15 am 02:15 Clear 34 0.9 23 -5 65 65 W 13 20 29.44 997 10 16 0.00 0.00
2:35 am 02:35 Clear 32 0 23 -5 69 69 W 13 20 29.50 999 10 16 0.00 0.00
2:55 am 02:55 Clear 33 0.6 23 -4.8 67 67 W 14 22 29.47 998 10 16 0.00 0.00
3:15 am 03:15 Clear 33 0.5 23 -5 67 67 W 14 22 29.47 998 10 16 0.00 0.00
3:35 am 03:35 Clear 32 0.1 23 -5 69 69 W 13 20 29.50 999 10 16 0.00 0.00
3:55 am 03:55 Clear 32 0 23 -5 69 69 W 12 19 29.50 999 10 16 0.00 0.00
4:15 am 04:15 Clear 31 -0.6 23 -5 72 72 W 9 15 29.50 999 10 16 0.00 0.00
4:35 am 04:35 Clear 31 -0.8 23 -5 74 74 W 10 17 29.50 999 10 16 0.00 0.00
4:55 am 04:55 Clear 29 -1.5 23 -5.2 76 76 WNW 7 11 29.50 999 10 16 0.00 0.00
5:15 am 05:15 Clear 28 -2 22 -5.4 78 78 WNW 7 11 29.53 1000 10 16 0.00 0.00
5:35 am 05:35 Partly Cloudy 29 -1.7 23 -5.2 77 77 WNW 7 11 29.53 1000 10 16 0.00 0.00
5:55 am 05:55 Cloudy 29 -1.7 23 -5 78 78 WNW 5 7 29.53 1000 10 16 0.00 0.00
6:15 am 06:15 Cloudy 31 -0.7 24 -4.2 77 77 WNW 5 7 29.53 1000 10 16 0.00 0.00
6:35 am 06:35 Cloudy 31 -0.7 25 -3.9 79 79 NW 5 7 29.56 1001 10 16 0.00 0.00
6:55 am 06:55 Cloudy 32 -0.1 26 -3.6 78 78 WNW 3 6 29.56 1001 10 16 0.00 0.00
7:15 am 07:15 Cloudy 32 0 26 -3.5 78 78 W 3 6 29.56 1001 10 16 0.00 0.00
7:35 am 07:35 Cloudy 32 0 26 -3.5 78 78 Calm 29.59 1002 10 16 0.00 0.00
7:55 am 07:55 Cloudy 32 -0.1 26 -3.6 78 78 Calm 29.59 1002 10 16 0.00 0.00
8:15 am 08:15 Cloudy 32 0 26 -3.3 79 79 NW 5 7 29.59 1002 10 16 0.00 0.00
8:35 am 08:35 Mostly Cloudy 32 0.1 26 -3.5 77 77 W 6 9 29.62 1003 10 16 0.00 0.00
8:55 am 08:55 Partly Cloudy 34 1.1 26 -3.2 73 73 W 6 9 29.62 1003 10 16 0.00 0.00
9:15 am 09:15 Partly Cloudy 35 1.5 26 -3.2 71 71 WNW 6 9 29.62 1003 10 16 0.00 0.00
9:35 am 09:35 Mostly Cloudy 35 1.5 26 -3.2 71 71 W 9 15 29.62 1003 10 16 0.00 0.00
9:55 am 09:55 Partly Cloudy 37 2.5 26 -3.5 65 65 W 14 22 29.59 1002 10 16 0.00 0.00
10:15 am 10:15 Sunny 38 3.1 24 -4.4 58 58 WNW 15 24 29.62 1003 10 16 0.00 0.00
10:35 am 10:35 Partly Cloudy 38 3.1 23 -4.8 57 57 WNW 15 24 29.62 1003 10 16 0.00 0.00
10:55 am 10:55 Mostly Cloudy 37 3 23 -5.1 56 56 NW 18 30 29.62 1003 10 16 0.00 0.00
11:15 am 11:15 Cloudy 37 3 22 -5.6 54 54 NW 23 37 29.62 1003 10 16 0.00 0.00
11:35 am 11:35 Mostly Cloudy 37 2.9 24 -4.6 58 58 NW 20 31 29.65 1004 10 16 0.00 0.00
11:55 am 11:55 Mostly Cloudy 37 2.5 24 -4.2 62 62 NW 18 30 29.65 1004 10 16 0.00 0.00
12:15 pm 12:15 Cloudy 38 3.3 22 -5.5 53 53 WNW 25 41 29.65 1004 10 16 0.00 0.00
12:35 pm 12:35 Cloudy 37 2.9 23 -5 56 56 WNW 21 33 29.65 1004 10 16 0.00 0.00
12:55 pm 12:55 Cloudy 37 2.8 23 -4.9 57 57 NW 23 37 29.65 1004 10 16 0.00 0.00
1:15 pm 13:15 Cloudy 37 2.5 22 -5.4 56 56 NW 23 37 29.65 1004 10 16 0.00 0.00
1:35 pm 13:35 Cloudy 37 3 23 -5.2 55 55 NW 18 30 29.65 1004 10 16 0.00 0.00
1:55 pm 13:55 Cloudy 37 2.7 23 -5.1 57 57 WNW 16 26 29.65 1004 10 16 0.00 0.00
2:15 pm 14:15 Cloudy 37 3 21 -5.9 52 52 WNW 21 33 29.65 1004 10 16 0.00 0.00
2:35 pm 14:35 Cloudy 37 3 22 -5.6 54 54 WNW 18 30 29.65 1004 10 16 0.00 0.00
2:55 pm 14:55 Cloudy 37 2.6 22 -5.3 56 56 NW 17 28 29.68 1005 10 16 0.00 0.00
3:15 pm 15:15 Cloudy 37 3 22 -5.4 54 54 NW 21 33 29.68 1005 10 16 0.00 0.00
3:35 pm 15:35 Cloudy 37 3 22 -5.3 55 55 NW 18 30 29.68 1005 10 16 0.00 0.00
3:55 pm 15:55 Cloudy 37 3 22 -5.8 53 53 NW 23 37 29.71 1006 10 16 0.00 0.00
4:15 pm 16:15 Cloudy 37 3 22 -5.7 53 53 NW 17 28 29.71 1006 10 16 0.00 0.00
4:35 pm 16:35 Cloudy 37 3 21 -5.9 52 52 NW 17 28 29.77 1008 10 16 0.00 0.00
4:55 pm 16:55 Cloudy 37 3 21 -6 52 52 NW 17 28 29.77 1008 10 16 0.00 0.00
5:15 pm 17:15 Cloudy 37 2.6 21 -6 53 53 NW 18 30 29.77 1008 10 16 0.00 0.00
5:35 pm 17:35 Cloudy 35 1.8 21 -6.1 56 56 NNW 14 22 29.77 1008 10 16 0.00 0.00
5:55 pm 17:55 Cloudy 35 1.4 21 -6 58 58 NW 10 17 29.80 1009 10 16 0.00 0.00
6:15 pm 18:15 Cloudy 33 0.7 22 -5.8 62 62 NNW 10 17 29.80 1009 10 16 0.00 0.00
6:35 pm 18:35 Cloudy 32 0.1 22 -5.6 66 66 NW 8 13 29.83 1010 10 16 0.00 0.00
6:55 pm 18:55 Cloudy 32 0 22 -5.3 68 68 NW 8 13 29.85 1011 10 16 0.00 0.00
7:15 pm 19:15 Cloudy 33 0.3 22 -5.5 65 65 NW 13 20 29.85 1011 10 16 0.00 0.00
7:35 pm 19:35 Cloudy 33 0.3 22 -5.6 65 65 NW 15 24 29.85 1011 10 16 0.00 0.00
7:55 pm 19:55 Cloudy 32 0.2 21 -6 63 63 NW 13 20 29.85 1011 10 16 0.00 0.00
8:15 pm 20:15 Mostly Cloudy 32 0 21 -6 64 64 NW 12 19 29.85 1011 10 16 0.00 0.00
8:35 pm 20:35 Partly Cloudy 30 -0.9 21 -6 69 69 NW 9 15 29.88 1012 10 16 0.00 0.00
8:55 pm 20:55 Clear 31 -0.5 21 -6.1 66 66 NW 15 24 29.88 1012 10 16 0.00 0.00
9:15 pm 21:15 Mostly Cloudy 31 -0.3 20 -6.5 63 63 NW 15 24 29.88 1012 10 16 0.00 0.00
9:35 pm 21:35 Cloudy 32 -0.2 20 -6.7 62 62 NW 14 22 29.88 1012 10 16 0.00 0.00
9:55 pm 21:55 Cloudy 31 -0.5 20 -6.6 64 64 NW 14 22 29.88 1012 10 16 0.00 0.00
10:15 pm 22:15 Cloudy 30 -1 20 -6.6 66 66 NW 10 17 29.88 1012 10 16 0.00 0.00
10:35 pm 22:35 Cloudy 29 -1.6 20 -6.5 70 70 NW 8 13 29.88 1012 10 16 0.00 0.00
10:55 pm 22:55 Mostly Cloudy 29 -1.9 20 -6.8 70 70 WNW 9 15 29.88 1012 10 16 0.00 0.00
11:15 pm 23:15 Clear 28 -2.2 19 -7 70 70 NW 9 15 29.88 1012 10 16 0.00 0.00
11:35 pm 23:35 Clear 28 -2.1 19 -7 69 69 WNW 12 19 29.88 1012 10 16 0.00 0.00
11:55 pm 23:55 Clear 28 -2.3 19 -7 70 70 NW 12 19 29.88 1012 10 16 0.00 0.00

Powered by AerisWeather